Location: Kuppenheim
(48.8299°N, 8.2568°E)
Time: 23:53:40
(UTC+00:00)

ERBS - Pass Details

Date: 31 October 2021
Orbit: 394 x 407 km, 57.0° (Epoch: 28 November)

Event Time Altitude Azimuth Distance (km) Brightness Sun altitude
Exits shadow 03:41:56 26° 50° (NE) 848 4.3 -25.1°
Drops below altitude 10° 03:43:30 10° 53° (NE) 1,468 5.8 -24.9°
Sets 03:45:35 0° 55° (NE) 2,335 7.0 -24.6°
